Blackpool, United Kingdom

3:49 AM GMT on December 14, 2017 (GMT +0000)
Blackpool

Weather History for EGNH - August, 2013

Change the Weather History Date:

Monday, August 5, 2013

  Actual Average Record
Temperature  
Mean Temperature 62 °F -  
Max Temperature 63 °F 64 °F 87 °F (2003)
Min Temperature 60 °F 54 °F 48 °F (2014)
Degree Days  
Heating Degree Days 4    
Growing Degree Days 12 (Base 50)    
Moisture  
Dew Point 58 °F    
Average Humidity 87    
Maximum Humidity 100    
Minimum Humidity 59    
Precipitation  
Precipitation 0.55 in - - ()
Sea Level Pressure  
Sea Level Pressure 29.76 in    
Wind  
Wind Speed 12 mph ()    
Max Wind Speed 21 mph    
Max Gust Speed 22 mph    
Visibility 4.8 miles    
Events Rain    
Averages and records for this station are not official NWS values.
T = Trace of Precipitation, MM = Missing Value Source: Averaged Metar Reports

Daily Weather History Graph

Daily Weather History Graph

Search for Another Location

Airport or City:

Trip Planner

Search our weather history database for the weather conditions in past years. The results will help you decide how hot, cold, wet, or windy it might be!

Date:

Astronomy

Aug. 05, 2013 Rise Set
Actual Time 5:33 AM BST 9:01 PM BST
Civil Twilight 4:50 AM BST 9:44 PM BST
Nautical Twilight 3:51 AM BST 10:42 PM BST
Astronomical Twilight 2:20 AM BST 12:09 AM BST
Moon 4:16 AM BST (8/5) 7:48 PM BST (8/5)
Length of Visible Light 16h 53m
Length of Day
15h 28m
Waning Crescent, 2% of the Moon is Illuminated
Aug 5
Waning Crescent
Aug 6
New
Aug 14
First Quarter
Aug 21
Full
Aug 28
Last Quarter

Hourly Weather History & Observations

Time (BST) Temp. Dew Point Humidity Pressure Visibility Wind Dir Wind Speed Gust Speed Precip Events Conditions
12:50 AM 63 °F 62 °F 94%  in - SSE 12.7 mph - -  
3:50 AM 62 °F 61 °F 97%  in - SSE 10.4 mph - -  
6:20 AM 60.8 °F 60.8 °F 100% 29.80 in 4.3 mi SE 11.5 mph - N/A Rain Light Rain
6:50 AM 61 °F 61 °F 99%  in - SSE 10.4 mph - -  
6:50 AM 60.8 °F 60.8 °F 100% 29.77 in 3.7 mi SE 9.2 mph - N/A Rain Rain
7:20 AM 60.8 °F 60.8 °F 100% 29.77 in 5.0 mi SE 9.2 mph - N/A Rain Light Rain
7:50 AM 60.8 °F 59.0 °F 94% 29.77 in 3.7 mi SE 11.5 mph - N/A Rain Rain
8:20 AM 60.8 °F 59.0 °F 94% 29.77 in 3.7 mi SE 12.7 mph - N/A Rain Rain
8:50 AM 60.8 °F 59.0 °F 94% 29.77 in 3.1 mi SE 11.5 mph - N/A Rain Rain
9:20 AM 60.8 °F 59.0 °F 94% 29.74 in 2.8 mi SE 10.4 mph - N/A Rain Rain
9:50 AM 60 °F 60 °F 100%  in - SSE 12.7 mph - -  
9:50 AM 60.8 °F 59.0 °F 94% 29.74 in 4.3 mi SE 11.5 mph - N/A Rain Light Rain
10:20 AM 60.8 °F 60.8 °F 100% 29.74 in 4.3 mi SE 11.5 mph - N/A Rain Rain
10:50 AM 60.8 °F 60.8 °F 100% 29.71 in 3.7 mi ESE 11.5 mph - N/A Rain Rain
11:20 AM 60.8 °F 60.8 °F 100% 29.71 in 2.5 mi ESE 10.4 mph - N/A Rain Rain
11:50 AM 62.6 °F 60.8 °F 94% 29.68 in 2.2 mi East 8.1 mph - N/A Rain Rain
12:20 PM 62.6 °F 62.6 °F 100% 29.68 in 1.9 mi ESE 6.9 mph - N/A Rain Rain
12:50 PM 63 °F 63 °F 100%  in - SSE 9.2 mph - -  
12:50 PM 64.4 °F 62.6 °F 94% 29.68 in 2.5 mi SE 8.1 mph - N/A Rain Rain
1:20 PM 64.4 °F 62.6 °F 94% 29.68 in 2.5 mi WSW 9.2 mph 21.9 mph N/A Rain Rain
1:50 PM 62.6 °F 60.8 °F 94% 29.68 in 4.3 mi WNW 15.0 mph - N/A Rain Light Rain
2:20 PM 62.6 °F 62.6 °F 100% 29.68 in 6.2 mi NW 18.4 mph - N/A Rain Light Rain
2:50 PM 62.6 °F 60.8 °F 94% 29.71 in 6.2 mi WNW 20.7 mph - N/A Rain Light Rain
3:20 PM 62.6 °F 59.0 °F 88% 29.74 in 6.2 mi NW 19.6 mph - N/A   Scattered Clouds
3:50 PM 63 °F 59 °F 83%  in - WNW 17.3 mph - -  
3:50 PM 62.6 °F 59.0 °F 88% 29.74 in 6.2 mi WNW 17.3 mph - N/A Rain Light Rain
4:20 PM 64.4 °F 60.8 °F 88% 29.77 in 6.2 mi West 15.0 mph - N/A   Scattered Clouds
4:50 PM 62.6 °F 59.0 °F 88% 29.77 in 6.2 mi WNW 17.3 mph - N/A Rain Light Rain Showers
5:20 PM 62.6 °F 57.2 °F 82% 29.77 in 6.2 mi WNW 18.4 mph - N/A   Partly Cloudy
5:50 PM 62.6 °F 55.4 °F 77% 29.77 in 6.2 mi WNW 18.4 mph - N/A   Partly Cloudy
6:20 PM 64.4 °F 53.6 °F 68% 29.80 in 6.2 mi WNW 18.4 mph - N/A   Partly Cloudy
6:50 PM 63 °F 52 °F 59%  in - NW 19.6 mph - -  
6:50 PM 62.6 °F 51.8 °F 68% 29.80 in 6.2 mi WNW 18.4 mph - N/A   Partly Cloudy
7:20 PM 62.6 °F 51.8 °F 68% 29.83 in 6.2 mi WNW 17.3 mph - N/A   Partly Cloudy
7:50 PM 62.6 °F 51.8 °F 68% 29.83 in 6.2 mi WNW 16.1 mph - N/A   Partly Cloudy
8:20 PM 62.6 °F 51.8 °F 68% 29.83 in 6.2 mi WNW 18.4 mph - N/A   Partly Cloudy
8:50 PM 62.6 °F 51.8 °F 68% 29.86 in 6.2 mi WNW 17.3 mph - N/A   Partly Cloudy
9:20 PM 60.8 °F 51.8 °F 72% 29.86 in 6.2 mi WNW 18.4 mph - N/A   Partly Cloudy
9:50 PM 61 °F 51 °F 60%  in - NW 17.3 mph - -  
9:50 PM 60.8 °F 50.0 °F 68% 29.89 in - WNW 17.3 mph - N/A   Clear
10:20 PM 60.8 °F 50.0 °F 68% 29.89 in - WNW 17.3 mph - N/A   Clear